GW2087 Weather Reports


time (UTC)temp
F
wind
direction
speed
knots
gust
knots
rain 1hr
in
rain 24hr
in
rain mn
in
humidity
%
barometer
mb
20260504014032 46 221 0.9 1.7 0.00 0.00 0.00 76 1013.6
20260504013529 47 220 0.9 0.9 0.00 0.00 0.00 71 1013.5
20260504013026 47 221 1.7 1.7 0.00 0.00 0.00 71 1013.5
20260504012524 47 226 0.9 0.9 0.00 0.00 0.00 69 1013.4
20260504012022 48 223 0.9 0.9 0.00 0.00 0.00 68 1013.4
20260504011518 48 227 1.7 1.7 0.00 0.00 0.00 66 1013.6
20260504011014 50 227 0.9 0.9 0.00 0.00 0.00 64 1013.4
20260504010510 50 224 0.9 0.9 0.00 0.00 0.00 59 1013.6
20260504010006 51 226 0.9 1.7 0.00 0.00 0.00 56 1013.3
20260504005503 52 235 0.0 0.0 0.00 0.00 0.00 57 1013.4
20260504005000 52 237 1.7 1.7 0.00 0.00 0.00 53 1013.4
20260504004458 53 216 1.7 1.7 0.00 0.00 0.00 47 1013.1
20260504003954 53 220 1.7 1.7 0.00 0.00 0.00 47 1013.1
20260504003450 54 216 1.7 1.7 0.00 0.00 0.00 46 1013.0
20260504002948 53 209 2.6 2.6 0.00 0.00 0.00 45 1013.4
20260504002445 53 224 2.6 2.6 0.00 0.00 0.00 44 1013.3
20260504001942 54 208 1.7 1.7 0.00 0.00 0.00 44 1013.4
20260504001439 53 218 0.9 1.7 0.00 0.00 0.00 48 1013.3
20260504000936 54 185 1.7 1.7 0.00 0.00 0.00 45 1013.3
20260504000433 54 218 1.7 1.7 0.00 0.00 0.00 43 1013.4
20260503235930 54 214 3.5 5.2 0.00 0.00 0.00 46 1013.0
20260503235428 54 238 1.7 2.6 0.00 0.00 0.00 44 1013.4
20260503234925 55 206 1.7 1.7 0.00 0.00 0.00 44 1013.1
20260503234422 55 157 2.6 2.6 0.00 0.00 0.00 43 1013.1
20260503233920 54 222 5.2 6.1 0.00 0.00 0.00 44 1013.1
20260503233417 55 220 0.0 0.9 0.00 0.00 0.00 44 1013.3
20260503232913 55 223 2.6 2.6 0.00 0.00 0.00 42 1013.1
20260503232410 56 242 1.7 1.7 0.00 0.00 0.00 43 1013.3
20260503231908 56 202 2.6 2.6 0.00 0.00 0.00 40 1013.2
20260503231405 56 205 5.2 7.8 0.00 0.00 0.00 40 1013.1
20260503230901 57 192 7.0 7.8 0.00 0.00 0.00 39 1013.2
20260503230358 57 232 1.7 1.7 0.00 0.00 0.00 41 1013.2
20260503225856 57 217 4.3 4.3 0.00 0.00 0.00 40 1013.3
20260503225351 57 183 2.6 2.6 0.00 0.00 0.00 39 1013.2
20260503224848 57 233 3.5 4.3 0.00 0.00 0.00 39 1013.1
20260503224345 57 248 0.9 1.7 0.00 0.00 0.00 39 1013.1
20260503223843 57 212 3.5 4.3 0.00 0.00 0.00 40 1013.4
20260503223340 57 216 1.7 1.7 0.00 0.00 0.00 41 1013.4
20260503222836 57 239 0.9 1.7 0.00 0.00 0.00 41 1013.4
20260503222335 57 330 1.7 4.3 0.00 0.00 0.00 39 1013.2
20260503221832 57 253 0.0 0.9 0.00 0.00 0.00 39 1013.4
20260503221331 57 248 2.6 5.2 0.00 0.00 0.00 38 1013.3
20260503220826 58 219 4.3 6.1 0.00 0.00 0.00 39 1013.4
20260503220323 58 150 0.9 0.9 0.00 0.00 0.00 37 1013.1
20260503215820 58 205 5.2 7.8 0.00 0.00 0.00 36 1013.2
20260503215318 58 206 5.2 7.0 0.00 0.00 0.00 37 1013.2
20260503214815 59 230 2.6 2.6 0.00 0.00 0.00 38 1013.1
20260503214312 58 190 1.7 2.6 0.00 0.00 0.00 38 1013.2
20260503213810 58 219 4.3 5.2 0.00 0.00 0.00 37 1013.1
20260503213307 57 209 5.2 9.6 0.00 0.00 0.00 37 1013.1
20260503212804 58 297 6.1 9.6 0.00 0.00 0.00 38 1013.1
20260503212302 60 225 7.0 7.8 0.00 0.00 0.00 36 1013.3
20260503211759 60 289 1.7 1.7 0.00 0.00 0.00 35 1013.2
20260503211255 59 235 7.0 9.6 0.00 0.00 0.00 38 1013.3
20260503210755 58 326 4.3 6.1 0.00 0.00 0.00 37 1013.1
20260503210253 59 241 1.7 1.7 0.00 0.00 0.00 37 1013.3
20260503205748 59 274 3.5 6.1 0.00 0.00 0.00 39 1013.3
20260503205245 60 309 4.3 5.2 0.00 0.00 0.00 34 1013.2
20260503204741 61 263 8.7 11.3 0.00 0.00 0.00 36 1013.2
20260503204239 58 211 3.5 6.1 0.00 0.00 0.00 39 1013.5
20260503203736 57 225 4.3 5.2 0.00 0.00 0.00 39 1013.4
20260503203234 58 187 6.1 11.3 0.00 0.00 0.00 39 1013.4
20260503202731 59 227 0.9 1.7 0.00 0.00 0.00 38 1013.5
20260503202229 60 194 5.2 7.0 0.00 0.00 0.00 38 1013.7
20260503201726 59 298 4.3 7.0 0.00 0.00 0.00 37 1013.6
20260503201224 58 239 4.3 5.2 0.00 0.00 0.00 38 1013.6
20260503200720 56 193 4.3 6.1 0.00 0.00 0.00 40 1013.7
20260503200216 57 199 4.3 5.2 0.00 0.00 0.00 39 1014.0
20260503195713 58 330 4.3 7.0 0.00 0.00 0.00 39 1014.0
20260503195210 58 227 6.1 7.8 0.00 0.00 0.00 39 1014.0
20260503194707 58 326 4.3 7.0 0.00 0.00 0.00 40 1013.9
20260503194203 57 258 2.6 2.6 0.00 0.00 0.00 40 1014.0
20260503193659 59 306 6.1 7.0 0.00 0.00 0.00 38 1014.1
20260503193155 58 327 2.6 2.6 0.00 0.00 0.00 42 1014.3
20260503192651 56 292 2.6 5.2 0.00 0.00 0.00 41 1014.3
20260503192147 57 203 7.0 9.6 0.00 0.00 0.00 40 1014.5
20260503191643 57 223 3.5 4.3 0.00 0.00 0.00 43 1014.5
20260503191141 57 241 3.5 4.3 0.00 0.00 0.00 42 1014.6
20260503190638 57 239 0.9 1.7 0.00 0.00 0.00 40 1014.6
20260503190134 58 262 6.1 7.8 0.00 0.00 0.00 41 1014.7
20260503185631 59 197 5.2 7.0 0.00 0.00 0.00 37 1014.7
20260503185126 58 327 7.0 7.8 0.00 0.00 0.00 39 1014.8
20260503184621 59 243 7.0 7.8 0.00 0.00 0.00 37 1014.7
20260503184118 59 127 1.7 2.6 0.00 0.00 0.00 36 1014.8
20260503183615 57 311 7.8 11.3 0.00 0.00 0.00 40 1014.9
20260503183112 57 272 4.3 7.0 0.00 0.00 0.00 40 1015.0
20260503182610 57 348 3.5 5.2 0.00 0.00 0.00 40 1015.0
20260503182108 57 345 5.2 7.0 0.00 0.00 0.00 44 1015.0
20260503181605 58 220 3.5 5.2 0.00 0.00 0.00 42 1015.0
20260503181102 58 285 3.5 4.3 0.00 0.00 0.00 39 1015.1
20260503180559 58 268 2.6 2.6 0.00 0.00 0.00 44 1015.4
20260503180056 57 1 3.5 7.0 0.00 0.00 0.00 41 1015.3
20260503175553 58 211 6.1 7.0 0.00 0.00 0.00 40 1015.4
20260503175050 57 328 4.3 7.0 0.00 0.00 0.00 40 1015.4
20260503174547 58 286 8.7 9.6 0.00 0.00 0.00 40 1015.6
20260503174044 55 243 2.6 4.3 0.00 0.00 0.00 40 1015.4
20260503173539 56 214 10.4 12.2 0.00 0.00 0.00 39 1015.9
20260503173035 56 209 7.8 11.3 0.00 0.00 0.00 42 1015.9
20260503172533 57 206 3.5 4.3 0.00 0.00 0.00 43 1015.7
20260503172030 56 237 2.6 2.6 0.00 0.00 0.00 39 1015.7
20260503171526 55 198 6.1 7.8 0.00 0.00 0.00 40 1015.8
20260503171024 56 304 2.6 4.3 0.00 0.00 0.00 38 1015.8
20260503170520 56 203 7.0 7.8 0.00 0.00 0.00 39 1015.8
20260503150912 51 208 3.5 4.3 0.00 0.00 0.00 47 1016.5
20260503150409 52 321 1.7 1.7 0.00 0.00 0.00 43 1016.4
20260503131302 44 264 0.9 1.7 0.00 0.00 0.00 67 1017.1
20260503130800 44 227 2.6 4.3 0.00 0.00 0.00 66 1017.2
20260503130257 44 210 1.7 1.7 0.00 0.00 0.00 66 1017.1
20260503110650 28 288 0.0 0.0 0.00 0.00 0.00 99 1016.6
20260503110148 27 287 0.0 0.0 0.00 0.00 0.00 99 1016.6
20260503100114 26 287 0.0 0.0 0.00 0.00 0.00 99 1016.1
20260503081504 28 288 0.0 0.0 0.00 0.00 0.00 98 1016.0
20260503081001 28 288 0.0 0.0 0.00 0.00 0.00 98 1015.9
20260503080457 28 288 0.0 0.0 0.00 0.00 0.00 98 1016.1
20260503072933 29 288 0.0 0.0 0.00 0.00 0.00 98 1015.7
20260503072431 29 288 0.0 0.0 0.00 0.00 0.00 98 1016.1
20260503071928 29 288 0.0 0.0 0.00 0.00 0.00 97 1015.8
20260503071425 29 288 0.0 0.0 0.00 0.00 0.00 97 1015.8
20260503070921 29 288 0.9 0.9 0.00 0.00 0.00 97 1015.8
20260503070418 29 288 0.0 0.0 0.00 0.00 0.00 97 1015.7
20260503054832 34 289 0.0 0.0 0.00 0.00 0.00 90 1015.8
20260503054327 34 289 0.0 0.0 0.00 0.00 0.00 91 1015.8
20260503053826 34 289 0.0 0.0 0.00 0.00 0.00 91 1016.0
20260503053324 35 289 0.0 0.0 0.00 0.00 0.00 91 1016.2
20260503052820 34 289 0.0 0.0 0.00 0.00 0.00 88 1016.1
20260503052317 34 289 0.0 0.0 0.00 0.00 0.00 92 1015.9
20260503051813 34 289 0.0 0.0 0.00 0.00 0.00 93 1016.1
20260503051309 34 289 0.0 0.0 0.00 0.00 0.00 94 1016.1
20260503050806 34 289 0.0 0.0 0.00 0.00 0.00 94 1016.2
20260503050302 34 289 0.0 0.0 0.00 0.00 0.00 94 1016.3
20260503045800 34 289 0.0 0.0 0.00 0.00 0.00 94 1016.5
20260503045258 34 289 0.0 0.0 0.00 0.00 0.00 94 1016.3
20260503044754 34 289 0.0 0.0 0.00 0.00 0.00 94 1016.2
20260503044251 34 289 0.0 0.0 0.00 0.00 0.00 94 1016.4
20260503043748 34 289 0.0 0.0 0.00 0.00 0.00 93 1016.2
20260503043245 34 289 0.0 0.0 0.00 0.00 0.00 93 1016.0
20260503042741 34 289 0.0 0.0 0.00 0.00 0.00 93 1016.2
20260503042238 34 289 0.0 0.0 0.00 0.00 0.00 93 1016.3
20260503041734 34 289 0.0 0.0 0.00 0.00 0.00 93 1016.2
20260503041232 34 289 0.0 0.0 0.00 0.00 0.00 93 1016.6
20260503040729 34 289 0.0 0.0 0.00 0.00 0.00 93 1016.2
20260503040221 34 289 0.0 0.0 0.00 0.00 0.00 93 1016.3
20260503035717 34 289 0.0 0.0 0.00 0.00 0.00 92 1016.3
20260503035215 34 289 0.0 0.0 0.00 0.00 0.00 92 1016.6
20260503034712 34 289 0.0 0.0 0.00 0.00 0.00 92 1016.2
20260503034209 34 289 0.0 0.9 0.00 0.00 0.00 93 1016.3
20260503033706 34 289 0.0 0.9 0.00 0.00 0.00 92 1016.0
20260503033204 34 289 0.0 0.0 0.00 0.00 0.00 92 1016.3
20260503032702 35 289 0.0 0.9 0.00 0.00 0.00 92 1016.5
20260503032200 35 289 0.9 0.9 0.00 0.00 0.00 90 1016.4
20260503031657 35 289 0.0 0.0 0.00 0.00 0.00 89 1016.4
20260503031155 35 289 0.0 0.9 0.00 0.00 0.00 89 1016.3
20260503030651 35 289 0.0 0.0 0.00 0.00 0.00 89 1016.7
20260503030148 35 289 0.0 0.0 0.00 0.00 0.00 89 1016.3
20260503025644 35 289 0.0 0.0 0.00 0.00 0.00 88 1016.5
20260503025143 36 289 0.0 0.0 0.00 0.00 0.00 88 1016.6
20260503024638 36 289 0.0 0.9 0.00 0.00 0.00 89 1016.5
20260503024136 36 289 0.0 0.0 0.00 0.00 0.00 85 1016.6
20260503023633 37 289 0.0 0.0 0.00 0.00 0.00 83 1016.7
20260503023130 37 289 0.9 0.9 0.00 0.00 0.00 83 1016.8
20260503022626 37 290 0.0 0.0 0.00 0.00 0.00 84 1016.9
20260503022120 37 291 0.0 0.0 0.00 0.00 0.00 85 1016.6
20260503021618 36 289 0.0 0.0 0.00 0.00 0.00 84 1016.5
20260503021114 37 289 0.0 0.0 0.00 0.00 0.00 84 1016.6
20260503020611 36 289 0.0 0.0 0.00 0.00 0.00 83 1016.7
20260503020109 37 289 0.0 0.0 0.00 0.00 0.00 84 1016.5
20260503015605 37 289 0.0 0.0 0.00 0.00 0.00 85 1016.6
20260503015102 38 289 0.0 0.0 0.00 0.00 0.00 84 1016.5
20260503014558 38 289 0.0 0.0 0.00 0.00 0.00 78 1016.5